SCP
0 0 0 0 0 0 0 0 0 0 0 0 0 0 0 0 0 0 0 0 0 0 0 0 0 0 0 0 0 0 0 0 0 0 0 0 0 0 0 0 0 0 0 0
0 0 0 0 0 0 0 0 0 0 0 0 0 0 0 0 0 0 0 0 0 0 0 0 0 0 0 0 0 0 0 0 0 0 0 0 0 0 0 0 0 0 0 0
0 0 0 0 0 0 0 0 0 0 0 0 0 0 0 0 0 0 0 0 0 0 0 0 0 0 0 0 0 0 0 0 0 0 0 0 0 0 0 0 0 0 0 0
0 0 0 0 0 0 0 0 0 0 0 0 0 0 0 0 0 0 0 0 0 0 0 0 0 0 0 0 0 0 0 0 0 0 0 0 0 0 0 0 0 0 0 0
0 0 0 0 0 0 0 0 0 0 0 0 0 0 0 0 0 0 0 0 0 0 0 0 0 0 0 0 0 0 0 0 0 0 0 0 0 0 0 0 0 0 0 0
0 0 0 0 0 0 0 0 0 0 0 0 0 0 0 0 0 0 0 0 0 0 0 0 0 0 0 0 0 0 0 0 0 0 0 0 0 0 0 0 0 0 0 0
0 0 0 0 0 0 0 0 0 0 0 0 0 0 0 0 0 0 0 0 0 0 0 0 0 0 0 0 0 0 0 0 0 0 0 0 0 0 0 0 0 0 0 0
0 0 0 0 0 0 0 0 0 0 0 0 0 0 0 0 0 0 0 0 0 0 0 0 0 0 0 0 0 -0 -0 -0 0 0 0 0 0 0 0 0 0 0 0 0
0 0 0 0 0 0 0 0 0 0 0 0 0 0 0 0 0 0 0 0 0 0 0 0 0 0 0 -0 -0 -0 -0 -0 0 0 0 0 0 0 0 0 0 0 0 0
0 0 0 0 0 0 0 0 0 0 0 0 0 0 0 0 0 0 0 0 0 0 -0 0 0 0 0 -0 -0 -0 -0 -0 0 0 0 0 0 0 0 0 0 0 0 0
0 0 0 0 0 0 0 0 0 0 0 0 0 0 0 0 0 0 0 0 -0 -0 -0 0 -0 -0 0 0 -0 -0 0 0 0 0 0 0 0 0 0 0 0 0 0 0
0 0 0 0 0 -0 0 0 0 0 0 0 0 0 0 0 0 0 0 0 -0 -0 -0 0 0 0 0 0 -0 -0 -0 0 0 0 0 0 0 0 0 0 0 0 0 0
0 0 0 -0 0 0 0 0 0 0 0 0 0 0 0 0 0 0 0 0 -0 -0 0 -0 -0 -0 -0 -0 -0 0 -0 0 0 0 0 0 0 0 0 0 0 -0 -0 -0
0 0 0 0 0 0 0 0 0 0 0 0 0 0 0 0 0 0 0 0 -0 -0 -0 -0 -0 -0 -0 -0 -0 0 0 -0 -0 0 0 0 0 0 0 0 0 0 -0 -0
0 0 0 0 0 0 0 0 0 0 0 0 0 0 0 0 0 0 0 0 -0 -0 0 0 -0 -0 -0 -0 -0 -0 0 -0 0 0 0 0 0 0 0 0 0 -0 0 0
0 0 0 -0 -0 0 0 0 0 0 0 0 0 0 0 0 0 0 0 0 -0 -0 -0 0 0 -0 -0 -0 -0 -0 -0 -0 0 0 0 0 0 0 0 0 0 -0 0 -0
0 0 -0 -0 0 0 0 0 0 0 0 0 0 0 0 0 0 0 0 0 0 -0 0 -0 -0 -0 -0 -0 -0 0 0 0 -0 0 0 0 0 0 0 0 0 -0 -0 -0
0 0 0 0 0 0 0 0 0 0 0 0 0 0 0 0 0 0 0 0 0 0 -0 0 -0 -0 -0 -0 0 0 0 0 0 0 0 0 0 0 0 0 -0 -0 -0 -0
-0 -0 -0 -0 0 0 0 0 0 0 0 0 0 0 0 0 0 0 -0 -0 -0 0 -0 -0 0 -0 -0 -0 -0 -0 -0 0 0 0 0 0 0 0 0 -0 -0 -0 -0 -0
-0 -0 -0 -0 -0 0 0 0 -0 0 0 0 0 0 -0 -0 -0 -0 -0 -0 -0 0 0 0 0 0 0 0 0 -0 -0 -0 -0 0 0 0 0 0 0 0 -0 -0 -0 0
-0 -0 -0 -0 -0 -0 -0 -0 -0 -0 -0 -0 -0 -0 -0 -0 -0 -0 -0 0 0 0 0 -0 0 0 -0 0 -0 -0 0 -0 -0 -0 -0 0 0 0 0 0 -0 -0 0 0
-0 -0 -0 -0 -0 -0 -0 -0 -0 -0 -0 -0 -0 -0 -0 -0 0 -0 -0 0 0 -0 0 0 -0 -0 0 -0 0 0 -0 -0 -0 -0 -0 -0 -0 0 0 0 -0 0 0 0
-0 -0 -0 -0 -0 -0 -0 -0 -0 -0 -0 -0 -0 -0 -0 -0 0 -0 -0 0 0 0 0 0 0 -0 -0 -0 -0 -0 0 -0 -0 -0 -0 -0 -0 -0 -0 -0 -0 0 0 0
-0 -0 -0 -0 -0 -0 -0 -0 -0 -0 -0 -0 -0 -0 0 0 -0 0 -0 -0 0 0 -0 -0 0 -0 0 -0 -0 -0 -0 -0 0 0 -0 -0 0 -0 -0 -0 -0 0 0 0
-0 -0 -0 -0 -0 -0 -0 -0 -0 -0 -0 -0 -0 -0 -0 -0 0 0 -0 -0 0 -0 -0 -0 -0 -0 -0 -0 -0 -0 -0 -0 -0 0 0 0 0 0 0 -0 -0 -0 0 0
-0 -0 -0 -0 -0 -0 -0 -0 -0 -0 -0 -0 -0 0 0 0 0 0 0 0 0 -0 -0 -0 -0 -0 -0 -0 -0 -0 -0 0 0 0 0 0 0 0 0 0 0 0 0 0
-0 -0 -0 -0 -0 -0 0 -0 -0 -0 0 0 0 0 0 0 0 0 0 0 -0 0 -0 -0 -0 -0 -0 -0 -0 -0 -0 -0 0 0 0 0 0 0 0 0 0 0 0 0
Wind_Speed_500mb
11 10 9 15 24 30 30 31 29 28 15 13 18 18 27 29 27 25 21 19 11 6 1 7 16 20 24 29 31 33 37 39 41 42 42 40 39 41 40 38 34 35 40 45
26 28 26 30 31 20 22 18 16 18 17 7 3 12 18 23 23 21 20 11 5 4 9 13 19 24 27 30 33 35 38 41 40 39 39 39 39 39 37 33 35 39 44 50
21 19 18 26 33 30 28 23 22 27 22 16 12 18 20 20 20 18 13 7 2 9 13 18 21 27 31 34 36 39 41 40 38 38 39 39 40 36 35 37 41 46 54 53
11 16 22 9 6 4 14 17 22 24 21 14 18 15 15 17 18 13 4 3 10 14 18 21 27 31 37 38 41 41 40 39 36 36 38 39 36 35 37 40 45 52 51 48
9 21 7 16 9 8 15 16 2 7 5 7 24 34 22 17 13 7 5 9 15 19 24 27 29 34 38 40 41 41 40 37 37 38 44 40 37 37 39 43 51 52 50 58
11 7 8 17 8 4 6 11 7 10 15 21 34 18 20 15 9 8 13 16 20 24 26 28 32 38 41 41 42 41 38 41 46 44 44 40 38 40 42 50 53 65 63 69
10 5 3 11 3 7 11 9 18 23 24 14 12 18 19 12 10 13 15 19 23 26 29 32 33 37 39 43 42 43 46 47 43 43 43 39 39 40 44 52 63 62 58 62
7 7 6 7 9 5 14 25 25 25 26 32 30 21 15 11 10 11 14 19 24 27 29 30 33 38 42 41 43 48 48 46 43 42 39 36 40 45 43 56 58 54 55 58
6 5 13 9 14 18 20 31 29 29 27 26 22 16 13 10 10 11 14 16 21 28 32 31 41 38 41 45 44 47 45 44 42 38 37 36 38 42 48 55 54 49 50 44
12 13 14 18 23 25 28 34 29 23 21 20 19 15 12 11 11 12 15 18 20 28 32 42 47 38 37 41 44 45 45 45 39 34 33 32 31 38 50 49 43 40 44 45
10 15 15 16 23 32 36 30 30 29 24 22 19 16 12 12 13 13 16 18 20 27 35 47 53 43 36 42 45 45 42 41 36 33 34 37 37 40 39 33 28 38 39 41
2 15 5 30 33 37 35 33 31 29 26 23 20 18 15 14 14 15 19 21 25 26 32 47 57 53 46 42 44 44 43 40 38 38 39 39 42 42 32 28 25 31 28 38
10 9 13 32 37 34 35 34 29 27 26 27 23 20 19 16 15 18 19 22 26 29 33 39 50 58 54 50 47 43 39 39 39 38 36 38 35 35 43 32 25 29 25 37
8 15 28 35 37 37 38 35 33 30 28 25 22 21 20 17 17 20 23 25 25 29 35 41 45 52 58 56 48 42 39 38 37 36 34 34 35 34 38 38 37 33 28 37
22 8 26 36 41 39 36 34 30 27 25 23 21 21 21 20 21 22 23 25 26 29 36 41 44 48 51 55 54 51 45 40 35 33 31 30 33 36 36 30 25 24 23 18
27 22 28 38 39 37 32 27 26 23 20 19 19 20 20 20 21 24 26 28 32 36 41 43 46 48 50 54 50 56 53 40 33 35 32 34 36 41 42 31 28 27 18 21
28 26 33 39 38 34 27 22 22 22 21 19 19 19 20 19 23 27 30 31 33 36 41 44 49 46 46 53 47 45 56 51 38 38 33 33 38 44 44 40 36 32 37 38
19 26 25 36 37 32 23 22 24 23 22 21 19 18 20 24 29 28 30 30 34 39 45 46 47 46 44 52 44 42 43 60 51 42 36 32 34 34 37 35 39 39 35 32
33 38 36 34 30 26 27 26 24 24 22 19 17 18 20 22 23 23 27 34 42 47 49 49 48 45 44 48 46 41 42 43 58 53 43 36 32 31 31 36 37 39 40 32
43 43 37 34 31 28 29 27 26 23 19 17 15 14 16 19 20 22 23 33 42 43 42 50 48 46 44 43 47 38 42 42 44 56 58 55 44 40 36 32 33 34 34 38
39 39 38 35 33 32 31 28 26 22 18 15 12 11 12 15 19 22 27 28 36 44 41 48 51 49 42 42 38 39 40 42 45 47 51 55 60 53 48 41 36 33 32 34
39 38 37 38 39 38 33 30 26 22 19 16 13 10 10 12 15 18 25 30 30 41 36 45 50 46 41 39 34 38 41 42 44 46 48 49 49 54 59 55 47 41 34 30
36 38 40 38 38 36 32 29 26 23 21 19 16 14 11 12 15 17 19 30 35 36 30 43 44 42 42 34 34 37 38 41 43 45 50 49 48 46 47 51 55 51 45 37
39 39 37 34 33 31 30 26 24 23 22 21 20 17 13 11 13 16 19 26 35 33 30 40 40 39 42 37 36 35 36 39 41 41 45 47 50 49 47 46 45 49 49 47
37 35 33 31 27 25 26 24 22 20 20 18 18 18 18 17 14 15 18 22 31 31 25 36 42 40 34 35 35 35 35 38 42 40 41 46 48 50 49 49 46 45 44 45
35 31 28 23 23 23 21 17 15 14 12 12 13 14 15 16 16 17 18 25 24 28 25 27 32 35 34 36 35 36 36 37 40 42 39 40 43 47 50 49 48 48 47 46
27 29 27 25 21 19 17 16 14 12 10 9 10 12 14 16 19 20 23 22 23 24 26 26 27 33 34 36 35 35 35 36 41 45 39 39 40 43 49 50 49 47 48 48
Wind_Direction_500mb
191 254 250 271 272 234 235 249 253 252 224 256 173 187 171 162 159 151 149 151 155 192 55 321 320 318 314 307 305 301 299 296 294 294 294 292 288 289 290 291 286 285 288 289
192 210 211 218 236 225 220 238 239 253 249 227 237 234 169 181 173 169 151 170 138 296 324 324 311 313 305 303 299 299 297 295 294 294 293 291 292 294 294 291 290 290 290 290
170 184 202 235 236 227 241 233 249 244 243 247 181 228 190 174 175 162 158 146 268 320 326 316 313 307 307 305 305 303 302 301 301 298 297 296 297 293 292 292 294 293 298 306
136 169 219 103 60 309 267 261 254 247 257 241 198 171 149 155 151 143 135 355 323 321 319 315 316 316 311 311 311 309 306 304 303 298 293 295 294 291 291 296 294 301 308 293
171 198 54 159 162 192 207 143 115 257 230 167 124 129 125 120 113 103 19 345 334 331 325 322 322 317 316 317 316 315 312 306 300 297 295 295 290 291 294 296 307 305 293 294
163 189 200 89 115 199 201 146 96 112 121 139 161 190 118 116 81 30 9 357 343 336 331 327 325 323 320 317 314 312 306 300 300 301 299 290 288 291 295 310 306 309 308 308
149 186 170 103 93 171 218 119 117 112 107 97 90 78 109 84 43 25 12 358 352 343 337 331 326 322 318 316 314 311 306 304 303 305 299 291 290 291 301 303 313 313 315 320
160 178 213 138 172 256 104 122 118 105 103 102 105 99 92 75 52 27 11 3 357 348 338 333 326 320 319 319 312 314 313 309 305 306 305 291 290 294 303 311 316 317 323 324
152 107 102 92 72 106 120 121 119 116 108 104 96 85 76 62 37 20 10 359 354 354 346 337 333 327 323 324 326 321 321 317 310 308 306 302 297 303 301 311 316 319 324 315
161 148 131 113 110 114 122 121 113 104 101 95 93 83 70 43 19 5 355 351 346 346 348 348 347 339 333 334 331 328 326 326 322 316 316 316 308 299 303 310 315 319 317 313
125 142 157 155 133 126 124 119 108 106 102 96 96 81 57 35 24 16 4 356 352 349 352 350 356 352 346 348 339 337 336 337 337 331 327 322 323 323 324 318 310 309 308 307
176 135 98 154 140 138 130 123 117 112 101 92 89 75 55 43 32 19 7 1 355 352 352 355 0 1 359 356 351 346 343 341 339 336 331 328 327 329 336 322 311 310 313 312
97 99 103 137 136 133 130 124 117 111 106 103 86 67 53 50 37 23 15 7 2 360 354 2 4 3 5 5 355 352 348 344 344 344 339 338 341 341 339 345 312 334 324 326
185 148 127 139 137 135 130 122 116 108 103 97 83 64 57 54 41 31 22 11 6 6 3 7 3 4 5 5 1 1 357 355 352 350 349 351 352 351 342 342 338 337 333 333
169 149 139 127 133 133 131 128 119 114 110 97 80 67 58 50 42 31 20 13 14 10 10 11 7 6 7 4 13 10 6 5 4 5 7 9 3 2 5 2 342 348 343 351
129 122 133 140 139 138 136 133 126 124 121 109 84 67 59 51 44 34 24 17 16 13 13 12 7 7 5 5 11 11 17 13 16 19 22 22 22 29 35 31 32 10 16 6
140 149 141 138 141 140 134 128 128 128 125 115 90 76 66 57 50 39 30 24 22 18 15 12 9 11 6 7 16 11 12 16 24 29 32 32 35 37 38 41 43 51 46 34
138 137 149 143 140 132 122 125 125 125 125 119 99 83 68 55 50 40 31 26 27 24 20 17 12 15 9 9 18 12 12 17 22 30 32 36 36 33 39 39 41 54 62 61
137 134 134 136 137 132 127 124 125 125 124 118 104 87 70 58 50 42 33 27 25 19 17 15 17 14 12 13 27 9 16 14 24 29 32 36 39 31 29 30 35 34 46 56
125 127 127 125 123 122 119 120 122 121 123 128 114 91 70 56 46 37 28 26 21 14 12 12 14 15 13 15 21 14 14 14 18 27 32 34 34 35 30 24 31 28 33 43
126 126 123 119 115 114 115 117 116 113 117 124 115 96 76 57 44 38 29 22 11 14 10 11 14 14 16 22 13 14 15 15 19 20 22 26 29 33 34 34 27 32 26 29
128 124 122 121 118 113 111 111 108 105 103 102 103 96 72 46 31 24 25 24 6 12 13 10 12 12 19 27 11 13 16 15 18 19 19 19 19 25 27 30 30 28 32 22
127 127 127 126 123 120 116 109 102 97 93 90 84 79 74 54 36 23 15 9 11 12 12 10 11 11 23 18 16 13 13 15 12 18 19 19 18 16 16 21 24 26 25 26
131 131 131 132 129 126 119 112 105 99 92 85 78 71 65 34 13 24 10 353 9 16 7 9 13 21 29 14 15 12 12 13 11 9 9 16 15 15 13 13 15 17 20 20
134 136 137 138 135 132 127 124 115 102 92 85 74 59 50 41 40 16 14 8 356 16 13 355 11 28 19 16 15 11 10 6 9 10 6 6 8 11 9 9 8 9 10 11
134 136 135 132 133 134 135 128 123 113 98 85 67 49 38 34 23 20 10 3 5 8 15 10 6 16 14 13 16 11 8 6 5 8 6 2 358 1 4 4 3 2 2 2
140 138 132 127 126 132 137 139 130 117 102 90 67 41 29 24 9 18 13 7 7 5 9 13 7 6 14 8 10 9 6 5 356 3 1 1 357 356 355 357 357 357 355 353
Wind_Speed_850mb
11 10 9 15 24 30 30 31 29 28 15 13 18 18 27 29 27 25 21 19 11 6 1 7 16 20 24 29 31 33 37 39 41 42 42 40 39 41 40 38 34 35 40 45
26 28 26 30 31 20 22 18 16 18 17 7 3 12 18 23 23 21 20 11 5 4 9 13 19 24 27 30 33 35 38 41 40 39 39 39 39 39 37 33 35 39 44 50
21 19 18 26 33 30 28 23 22 27 22 16 12 18 20 20 20 18 13 7 2 9 13 18 21 27 31 34 36 39 41 40 38 38 39 39 40 36 35 37 41 46 54 53
11 16 22 9 6 4 14 17 22 24 21 14 18 15 15 17 18 13 4 3 10 14 18 21 27 31 37 38 41 41 40 39 36 36 38 39 36 35 37 40 45 52 51 48
9 21 7 16 9 8 15 16 2 7 5 7 24 34 22 17 13 7 5 9 15 19 24 27 29 34 38 40 41 41 40 37 37 38 44 40 37 37 39 43 51 52 50 58
11 7 8 17 8 4 6 11 7 10 15 21 34 18 20 15 9 8 13 16 20 24 26 28 32 38 41 41 42 41 38 41 46 44 44 40 38 40 42 50 53 65 63 69
10 5 3 11 3 7 11 9 18 23 24 14 12 18 19 12 10 13 15 19 23 26 29 32 33 37 39 43 42 43 46 47 43 43 43 39 39 40 44 52 63 62 58 62
7 7 6 7 9 5 14 25 25 25 26 32 30 21 15 11 10 11 14 19 24 27 29 30 33 38 42 41 43 48 48 46 43 42 39 36 40 45 43 56 58 54 55 58
6 5 13 9 14 18 20 31 29 29 27 26 22 16 13 10 10 11 14 16 21 28 32 31 41 38 41 45 44 47 45 44 42 38 37 36 38 42 48 55 54 49 50 44
12 13 14 18 23 25 28 34 29 23 21 20 19 15 12 11 11 12 15 18 20 28 32 42 47 38 37 41 44 45 45 45 39 34 33 32 31 38 50 49 43 40 44 45
10 15 15 16 23 32 36 30 30 29 24 22 19 16 12 12 13 13 16 18 20 27 35 47 53 43 36 42 45 45 42 41 36 33 34 37 37 40 39 33 28 38 39 41
2 15 5 30 33 37 35 33 31 29 26 23 20 18 15 14 14 15 19 21 25 26 32 47 57 53 46 42 44 44 43 40 38 38 39 39 42 42 32 28 25 31 28 38
10 9 13 32 37 34 35 34 29 27 26 27 23 20 19 16 15 18 19 22 26 29 33 39 50 58 54 50 47 43 39 39 39 38 36 38 35 35 43 32 25 29 25 37
8 15 28 35 37 37 38 35 33 30 28 25 22 21 20 17 17 20 23 25 25 29 35 41 45 52 58 56 48 42 39 38 37 36 34 34 35 34 38 38 37 33 28 37
22 8 26 36 41 39 36 34 30 27 25 23 21 21 21 20 21 22 23 25 26 29 36 41 44 48 51 55 54 51 45 40 35 33 31 30 33 36 36 30 25 24 23 18
27 22 28 38 39 37 32 27 26 23 20 19 19 20 20 20 21 24 26 28 32 36 41 43 46 48 50 54 50 56 53 40 33 35 32 34 36 41 42 31 28 27 18 21
28 26 33 39 38 34 27 22 22 22 21 19 19 19 20 19 23 27 30 31 33 36 41 44 49 46 46 53 47 45 56 51 38 38 33 33 38 44 44 40 36 32 37 38
19 26 25 36 37 32 23 22 24 23 22 21 19 18 20 24 29 28 30 30 34 39 45 46 47 46 44 52 44 42 43 60 51 42 36 32 34 34 37 35 39 39 35 32
33 38 36 34 30 26 27 26 24 24 22 19 17 18 20 22 23 23 27 34 42 47 49 49 48 45 44 48 46 41 42 43 58 53 43 36 32 31 31 36 37 39 40 32
43 43 37 34 31 28 29 27 26 23 19 17 15 14 16 19 20 22 23 33 42 43 42 50 48 46 44 43 47 38 42 42 44 56 58 55 44 40 36 32 33 34 34 38
39 39 38 35 33 32 31 28 26 22 18 15 12 11 12 15 19 22 27 28 36 44 41 48 51 49 42 42 38 39 40 42 45 47 51 55 60 53 48 41 36 33 32 34
39 38 37 38 39 38 33 30 26 22 19 16 13 10 10 12 15 18 25 30 30 41 36 45 50 46 41 39 34 38 41 42 44 46 48 49 49 54 59 55 47 41 34 30
36 38 40 38 38 36 32 29 26 23 21 19 16 14 11 12 15 17 19 30 35 36 30 43 44 42 42 34 34 37 38 41 43 45 50 49 48 46 47 51 55 51 45 37
39 39 37 34 33 31 30 26 24 23 22 21 20 17 13 11 13 16 19 26 35 33 30 40 40 39 42 37 36 35 36 39 41 41 45 47 50 49 47 46 45 49 49 47
37 35 33 31 27 25 26 24 22 20 20 18 18 18 18 17 14 15 18 22 31 31 25 36 42 40 34 35 35 35 35 38 42 40 41 46 48 50 49 49 46 45 44 45
35 31 28 23 23 23 21 17 15 14 12 12 13 14 15 16 16 17 18 25 24 28 25 27 32 35 34 36 35 36 36 37 40 42 39 40 43 47 50 49 48 48 47 46
27 29 27 25 21 19 17 16 14 12 10 9 10 12 14 16 19 20 23 22 23 24 26 26 27 33 34 36 35 35 35 36 41 45 39 39 40 43 49 50 49 47 48 48
Wind_Direction_850mb
191 254 250 271 272 234 235 249 253 252 224 256 173 187 171 162 159 151 149 151 155 192 55 321 320 318 314 307 305 301 299 296 294 294 294 292 288 289 290 291 286 285 288 289
192 210 211 218 236 225 220 238 239 253 249 227 237 234 169 181 173 169 151 170 138 296 324 324 311 313 305 303 299 299 297 295 294 294 293 291 292 294 294 291 290 290 290 290
170 184 202 235 236 227 241 233 249 244 243 247 181 228 190 174 175 162 158 146 268 320 326 316 313 307 307 305 305 303 302 301 301 298 297 296 297 293 292 292 294 293 298 306
136 169 219 103 60 309 267 261 254 247 257 241 198 171 149 155 151 143 135 355 323 321 319 315 316 316 311 311 311 309 306 304 303 298 293 295 294 291 291 296 294 301 308 293
171 198 54 159 162 192 207 143 115 257 230 167 124 129 125 120 113 103 19 345 334 331 325 322 322 317 316 317 316 315 312 306 300 297 295 295 290 291 294 296 307 305 293 294
163 189 200 89 115 199 201 146 96 112 121 139 161 190 118 116 81 30 9 357 343 336 331 327 325 323 320 317 314 312 306 300 300 301 299 290 288 291 295 310 306 309 308 308
149 186 170 103 93 171 218 119 117 112 107 97 90 78 109 84 43 25 12 358 352 343 337 331 326 322 318 316 314 311 306 304 303 305 299 291 290 291 301 303 313 313 315 320
160 178 213 138 172 256 104 122 118 105 103 102 105 99 92 75 52 27 11 3 357 348 338 333 326 320 319 319 312 314 313 309 305 306 305 291 290 294 303 311 316 317 323 324
152 107 102 92 72 106 120 121 119 116 108 104 96 85 76 62 37 20 10 359 354 354 346 337 333 327 323 324 326 321 321 317 310 308 306 302 297 303 301 311 316 319 324 315
161 148 131 113 110 114 122 121 113 104 101 95 93 83 70 43 19 5 355 351 346 346 348 348 347 339 333 334 331 328 326 326 322 316 316 316 308 299 303 310 315 319 317 313
125 142 157 155 133 126 124 119 108 106 102 96 96 81 57 35 24 16 4 356 352 349 352 350 356 352 346 348 339 337 336 337 337 331 327 322 323 323 324 318 310 309 308 307
176 135 98 154 140 138 130 123 117 112 101 92 89 75 55 43 32 19 7 1 355 352 352 355 0 1 359 356 351 346 343 341 339 336 331 328 327 329 336 322 311 310 313 312
97 99 103 137 136 133 130 124 117 111 106 103 86 67 53 50 37 23 15 7 2 360 354 2 4 3 5 5 355 352 348 344 344 344 339 338 341 341 339 345 312 334 324 326
185 148 127 139 137 135 130 122 116 108 103 97 83 64 57 54 41 31 22 11 6 6 3 7 3 4 5 5 1 1 357 355 352 350 349 351 352 351 342 342 338 337 333 333
169 149 139 127 133 133 131 128 119 114 110 97 80 67 58 50 42 31 20 13 14 10 10 11 7 6 7 4 13 10 6 5 4 5 7 9 3 2 5 2 342 348 343 351
129 122 133 140 139 138 136 133 126 124 121 109 84 67 59 51 44 34 24 17 16 13 13 12 7 7 5 5 11 11 17 13 16 19 22 22 22 29 35 31 32 10 16 6
140 149 141 138 141 140 134 128 128 128 125 115 90 76 66 57 50 39 30 24 22 18 15 12 9 11 6 7 16 11 12 16 24 29 32 32 35 37 38 41 43 51 46 34
138 137 149 143 140 132 122 125 125 125 125 119 99 83 68 55 50 40 31 26 27 24 20 17 12 15 9 9 18 12 12 17 22 30 32 36 36 33 39 39 41 54 62 61
137 134 134 136 137 132 127 124 125 125 124 118 104 87 70 58 50 42 33 27 25 19 17 15 17 14 12 13 27 9 16 14 24 29 32 36 39 31 29 30 35 34 46 56
125 127 127 125 123 122 119 120 122 121 123 128 114 91 70 56 46 37 28 26 21 14 12 12 14 15 13 15 21 14 14 14 18 27 32 34 34 35 30 24 31 28 33 43
126 126 123 119 115 114 115 117 116 113 117 124 115 96 76 57 44 38 29 22 11 14 10 11 14 14 16 22 13 14 15 15 19 20 22 26 29 33 34 34 27 32 26 29
128 124 122 121 118 113 111 111 108 105 103 102 103 96 72 46 31 24 25 24 6 12 13 10 12 12 19 27 11 13 16 15 18 19 19 19 19 25 27 30 30 28 32 22
127 127 127 126 123 120 116 109 102 97 93 90 84 79 74 54 36 23 15 9 11 12 12 10 11 11 23 18 16 13 13 15 12 18 19 19 18 16 16 21 24 26 25 26
131 131 131 132 129 126 119 112 105 99 92 85 78 71 65 34 13 24 10 353 9 16 7 9 13 21 29 14 15 12 12 13 11 9 9 16 15 15 13 13 15 17 20 20
134 136 137 138 135 132 127 124 115 102 92 85 74 59 50 41 40 16 14 8 356 16 13 355 11 28 19 16 15 11 10 6 9 10 6 6 8 11 9 9 8 9 10 11
134 136 135 132 133 134 135 128 123 113 98 85 67 49 38 34 23 20 10 3 5 8 15 10 6 16 14 13 16 11 8 6 5 8 6 2 358 1 4 4 3 2 2 2
140 138 132 127 126 132 137 139 130 117 102 90 67 41 29 24 9 18 13 7 7 5 9 13 7 6 14 8 10 9 6 5 356 3 1 1 357 356 355 357 357 357 355 353